India Forums Logo

Phir Subah Hogi

India Forums > Forum Index > Phir Subah Hogi
Phir Subah Hogi
...
<< | 16 | 17 | 18 | 19 | 20 | 21 | 22 | 23 | 24 | 25 | 26 | 27 | 28 | 29 | 30 | 31 | 32 | 33 | 34 | ... >>
TIDTopic SubjectStart DateLast Entry
3268606After watching today's episode11/1/2012 11:24:00 PM11/3/2012 1:47:29 AM
3268727TO Vote Nandish Aka. Adi11/2/2012 1:30:32 AM11/3/2012 9:09:34 AM
3268808TOI : Negativity getting popular on TV11/2/2012 3:01:09 AM11/2/2012 1:01:36 PM
3269261Yeah, I don't feel sorry for Adi11/2/2012 8:21:55 AM11/3/2012 1:55:37 AM
3269702*PSH Update 2nd Nov -Reva Masterminds*11/2/2012 12:03:09 PM11/3/2012 8:16:17 PM
3269715Oh GOd! i am really not ready for this.11/2/2012 12:12:40 PM11/2/2012 9:35:12 PM
3269764Great Vikram against Sugni11/2/2012 12:39:22 PM11/2/2012 12:59:42 PM
3269797The Subah of Saas-bahu...11/2/2012 1:02:38 PM11/3/2012 10:33:47 PM
3269855PLS. END WHOM SHOULD SUGNI MARRY track11/2/2012 2:06:32 PM11/3/2012 3:31:55 AM
3269866Reva ki juth11/2/2012 2:14:37 PM11/2/2012 4:55:11 PM
3270018Isn't Sugni illiterate?11/2/2012 5:12:02 PM11/5/2012 9:06:18 PM
3270070Would Vickram buy what Reva is selling?11/2/2012 7:17:24 PM11/3/2012 5:33:55 AM
3270113Just an observation11/2/2012 8:42:42 PM11/3/2012 1:54:20 AM
3270216Other..what u Like11/2/2012 11:34:22 PM11/11/2012 2:37:19 AM
3270411What Can I say About U Sugni ? hmm11/3/2012 3:25:49 AM11/16/2012 2:24:07 PM
3270458Varun Badola/TVS 2nd AT ONLY 4 VARUN Fans11/3/2012 4:33:21 AM12/31/2012 3:40:12 AM
3270545Reva's character11/3/2012 5:51:55 AM11/4/2012 10:23:04 AM
3270676GOTW : Keep a word Drop a Word11/3/2012 7:47:29 AM11/12/2012 9:26:08 AM
3271290adi and sugni11/3/2012 1:09:10 PM11/3/2012 4:17:00 PM
3271568can any1 help plz11/3/2012 9:52:50 PM11/3/2012 9:52:50 PM
3271569music collection of phir subah hogi???11/3/2012 9:57:53 PM11/3/2012 9:57:53 PM
3271579Music Collection Of Phir Subah Hogi. ENJOY :)!!!!!11/3/2012 10:18:01 PM11/4/2012 9:54:13 PM
3271625PSH NL Express # 111/3/2012 11:26:36 PM11/6/2012 5:41:06 PM
3271637New Promo Adini Married???11/3/2012 11:53:48 PM11/5/2012 12:02:24 PM
3271820TVS-Sugni-Adi triangle for at least other 2-3 Wks11/4/2012 2:34:07 AM11/5/2012 1:42:15 AM
3272443worst and irritating character in PSH is ??11/4/2012 1:03:49 PM11/4/2012 1:03:49 PM
3272445worst and irritating character in PSH is ??11/4/2012 1:09:23 PM11/4/2012 11:41:47 PM
3272458adini getting married in real ??11/4/2012 1:26:48 PM11/5/2012 1:20:03 AM
3273171New promo with link11/5/2012 5:38:10 AM11/5/2012 4:12:30 PM
3273797I don't like it ..brainless S11/5/2012 10:14:52 AM11/5/2012 10:25:03 AM
3273905*PSH WU 5th Nov TVS doubts Sug/Adini wed*11/5/2012 11:03:25 AM11/7/2012 10:54:56 AM
3273984Sugnis New Drama11/5/2012 11:57:44 AM11/6/2012 12:45:05 AM
3274074Vikram Fans-Do you Support Vikram?11/5/2012 1:15:21 PM11/6/2012 7:21:29 AM
3274096We got 2nd Chance but... CV made it last one11/5/2012 1:27:26 PM11/6/2012 4:48:58 AM
3274125Most Disgusting11/5/2012 1:50:20 PM11/7/2012 1:50:09 AM
3274135I am not sure but I think11/5/2012 2:03:06 PM11/7/2012 7:35:50 PM
3274183Look how fast "Meera" change colors!11/5/2012 3:48:46 PM11/6/2012 7:15:38 AM
3274259cvs turn into MANIPULATORS11/5/2012 6:39:26 PM11/7/2012 9:00:09 AM
3274433Loved TVS today11/5/2012 10:12:32 PM11/6/2012 10:15:30 AM
3274616I respect every one's thinking11/6/2012 1:02:03 AM11/7/2012 1:30:38 AM
3275084Ahhh Si this is the real purpose of this show!11/6/2012 6:33:50 AM11/6/2012 1:48:31 PM
3275126ADI AND SUGNI VM11/6/2012 7:00:31 AM11/6/2012 8:20:57 AM
3275703Any Problem solution is11/6/2012 10:48:12 AM11/7/2012 3:25:12 AM
3275706Shaadi ho to like Adi and Sugni wedding..11/6/2012 10:50:07 AM11/7/2012 3:08:41 AM
3275727Vikram must be smart11/6/2012 10:55:25 AM11/9/2012 1:08:43 AM
3275739Vikram mother????11/6/2012 11:06:05 AM11/7/2012 5:46:52 PM
3275743Basically Cv's Proved that they are just Sick11/6/2012 11:07:48 AM11/6/2012 12:12:06 PM
3275764WU 6 11 12.Adi Sugni wedding :drama & truth out.11/6/2012 11:14:38 AM11/7/2012 5:23:25 AM
3275832This is Sick! I am quitting.11/6/2012 11:56:17 AM11/6/2012 12:21:28 PM
3275836My way of protest!11/6/2012 11:58:06 AM11/6/2012 2:08:15 PM
3276001Vini Fans11/6/2012 1:30:52 PM11/7/2012 2:01:04 AM
32760214rm todays epi (6/11) now the show is fully ruined11/6/2012 1:49:17 PM11/7/2012 6:27:04 AM
3276023What happened Sugni?11/6/2012 1:51:07 PM11/7/2012 1:17:37 PM
3276038Phir Subah Hogi In vikram's LIFE ???11/6/2012 2:33:10 PM11/6/2012 2:33:10 PM
3276151sugni's love keeps changing every single episode.11/6/2012 5:42:39 PM11/8/2012 1:42:52 PM
3276163Relieved11/6/2012 6:21:32 PM11/6/2012 8:41:41 PM
3276177r u real fans of any one11/6/2012 7:06:47 PM11/6/2012 8:38:52 PM
3276256Whatz up with Sindor Dibi???11/6/2012 8:48:35 PM11/6/2012 10:34:59 PM
3276604Wooohooo...Yipee..Adi-Sugni finally tie the knot11/7/2012 1:51:28 AM11/10/2012 9:51:24 PM
3276628Whats Next in the story11/7/2012 2:10:23 AM11/7/2012 5:12:12 AM
3276685SBB News Adi and Sugni11/7/2012 2:40:22 AM11/7/2012 12:56:04 PM
3277108What does turning grey mean?11/7/2012 6:05:28 AM11/7/2012 4:05:36 PM
3277221Did S & A really had no choice11/7/2012 7:10:38 AM11/7/2012 9:57:45 AM
3277366Im missing My ADi-Anuj11/7/2012 8:01:57 AM11/7/2012 10:25:25 PM
3277759Vikram changed A to V ...now kick out on Nov 8th11/7/2012 10:27:23 AM11/7/2012 10:27:23 AM
3277910WU 7 11 12,Adi accepts Sugni as wife all refuse11/7/2012 11:11:53 AM11/8/2012 1:16:51 AM
3278304Did VIkram sacrifice willingly?11/7/2012 1:59:51 PM11/8/2012 11:37:35 AM
3278312Protest Post III: What a Joke!11/7/2012 2:08:10 PM11/8/2012 6:08:06 AM
3278329Insult11/7/2012 2:35:40 PM11/8/2012 12:50:42 PM
3278654Copy Cat Aditya11/7/2012 8:09:30 PM11/12/2012 4:34:22 AM
3279055My BIRTHDAY...11/8/2012 12:23:22 AM11/8/2012 10:58:13 AM
3279084Nandish Sandhu11/8/2012 12:33:02 AM11/9/2012 7:16:18 AM
3279252Vickram11/8/2012 2:00:22 AM11/8/2012 7:12:38 PM
3279330Rangmunch - The winner is..11/8/2012 2:39:00 AM11/8/2012 4:11:28 AM
3279779murder attempt11/8/2012 6:14:54 AM11/8/2012 12:11:42 PM
<< | 16 | 17 | 18 | 19 | 20 | 21 | 22 | 23 | 24 | 25 | 26 | 27 | 28 | 29 | 30 | 31 | 32 | 33 | 34 | ... >>